Theta_e
337 336 339 337 338 338 338 339 340 341 341 340 338 336 335 337 342 343 343 342 340 339 339 339 340 340 341 340 340 339 339 340 340 339 341 341 342 339 338 338 338 338 338
327 332 334 335 335 334 335 337 339 339 340 340 339 337 336 337 339 342 342 341 340 339 339 338 339 340 340 339 339 338 338 338 339 339 340 340 341 340 338 338 337 338 337
324 328 329 329 329 330 333 335 337 338 339 340 340 337 338 338 339 341 340 339 337 338 338 339 338 338 339 338 338 337 336 337 337 339 339 339 339 340 336 336 337 337 336
322 325 327 327 326 329 332 334 336 337 339 340 340 338 337 337 337 338 338 336 336 337 338 338 337 336 337 337 337 337 336 336 337 338 339 338 338 341 337 336 336 336 335
322 325 326 324 325 327 331 333 335 336 338 340 340 338 337 336 335 336 336 335 336 335 336 337 336 335 335 337 336 336 335 335 336 337 338 337 340 338 336 336 335 334 334
323 326 324 323 324 326 330 332 334 336 337 339 340 339 337 336 335 335 335 334 334 335 335 336 336 335 337 337 337 338 337 336 336 336 336 337 337 337 335 334 333 333 333
325 325 323 323 324 326 328 331 333 335 338 340 340 339 337 336 335 335 335 330 332 332 334 336 336 336 336 336 337 337 337 336 336 335 334 336 336 335 334 333 333 332 332
324 324 324 323 324 325 328 331 333 334 340 341 341 339 337 336 335 335 333 331 331 328 330 334 335 334 336 335 336 337 337 336 334 334 334 333 334 336 335 333 332 332 331
325 324 323 324 325 327 328 330 333 333 339 341 341 339 338 336 335 332 330 328 328 327 331 334 334 334 335 334 335 336 335 335 334 333 332 334 334 334 334 332 332 331 329
334 332 326 325 327 331 333 331 333 334 338 341 341 339 338 335 329 328 330 328 328 329 332 333 334 333 334 334 333 334 334 334 334 333 332 333 333 333 333 332 331 330 329
340 337 333 327 329 332 334 336 335 335 337 340 340 339 337 332 328 328 327 327 328 329 332 332 333 334 333 333 332 332 333 334 333 332 332 332 332 331 331 331 332 329 327
340 338 335 329 328 332 334 336 337 338 338 340 339 339 336 329 331 329 328 327 327 327 332 332 335 334 333 333 331 331 333 334 332 332 332 332 331 330 330 329 331 327 326
340 340 338 331 328 331 334 336 338 338 339 340 339 339 337 331 331 330 331 330 328 328 332 331 332 331 332 331 332 332 333 333 332 332 331 330 330 328 328 328 328 326 325
342 340 341 338 329 332 332 335 336 337 338 339 340 339 338 333 330 332 331 331 329 330 332 331 331 331 332 331 331 331 332 332 331 330 329 329 329 328 327 327 326 326 324
342 342 343 342 336 333 334 335 334 336 337 337 339 339 338 336 333 330 330 331 327 331 331 332 329 330 331 332 330 330 331 330 331 330 329 329 328 328 327 327 326 325 324
341 342 343 344 342 339 338 338 337 334 336 337 337 338 338 337 336 335 332 334 330 332 330 331 328 329 329 330 330 329 329 329 330 330 328 328 328 327 326 326 325 324 323
342 341 343 344 344 343 342 340 340 337 335 336 337 338 338 338 336 333 333 334 333 331 328 328 326 328 328 329 329 329 329 328 329 329 328 327 327 325 324 323 321 322 322
337 342 342 344 344 344 344 342 341 339 337 337 338 339 339 338 337 334 335 334 333 331 329 325 326 328 327 328 328 327 326 328 329 329 327 326 326 324 323 321 321 321 321
319 336 342 343 344 344 344 343 343 341 339 339 341 340 339 339 338 336 336 334 333 331 329 325 327 326 328 327 328 327 327 328 328 329 326 325 324 322 322 321 320 320 320
318 320 334 342 344 344 344 343 342 342 342 341 342 342 340 339 338 337 336 334 333 331 329 329 329 328 328 326 327 327 326 326 327 327 324 324 323 322 321 320 319 320 319
318 317 331 341 343 344 343 342 341 341 341 341 341 342 341 340 339 337 336 334 333 333 331 330 330 329 327 327 327 327 324 324 324 325 324 323 322 321 320 320 319 319 319
317 316 327 339 341 344 343 343 342 341 341 342 341 341 341 340 339 337 335 334 332 332 331 331 329 327 327 327 326 326 325 322 321 321 322 322 321 320 320 320 319 319 318
317 316 320 336 341 344 343 342 342 340 339 339 340 340 339 337 338 338 335 334 334 332 331 330 329 327 326 326 326 326 324 325 321 320 320 321 320 319 319 320 319 319 318
319 317 320 334 341 343 343 341 341 340 338 338 338 339 339 336 335 337 336 335 333 332 330 329 329 327 326 325 326 326 325 323 322 320 320 320 320 320 319 319 319 319 318
319 323 327 336 341 343 343 341 340 339 339 338 336 337 337 335 335 334 334 335 333 332 331 329 328 327 326 325 325 325 324 322 322 321 321 319 319 320 320 320 319 319 318
317 323 329 337 341 341 342 341 340 339 337 335 335 335 334 334 334 333 333 333 332 331 331 330 328 328 326 326 325 325 325 323 321 321 319 320 320 319 320 320 320 320 319
Wind_Speed
24 24 21 19 17 16 16 14 13 11 11 11 13 13 14 16 18 18 19 19 19 19 20 19 16 14 16 15 15 18 21 20 19 19 26 27 27 28 28 28 28 28 27
31 25 22 18 16 15 15 15 14 12 11 10 12 13 14 15 17 17 17 17 17 16 17 17 14 14 16 17 18 19 22 24 26 26 27 26 26 26 28 27 28 28 26
30 25 22 18 16 15 15 16 14 13 13 12 13 14 16 16 17 18 19 19 16 14 11 12 12 12 14 17 18 21 25 27 28 28 28 27 25 25 27 27 27 27 27
29 26 24 20 17 16 15 15 15 15 15 15 15 16 17 19 18 18 19 19 20 20 15 11 10 11 13 16 20 24 27 27 28 29 29 26 25 25 25 26 27 26 25
29 27 25 21 18 16 16 15 15 15 16 16 17 17 18 18 17 17 18 19 19 21 18 14 11 12 15 21 26 29 27 28 27 27 28 27 27 25 25 25 24 24 23
30 28 24 21 18 17 16 16 15 16 17 18 18 18 18 16 15 18 21 19 16 20 19 18 13 17 19 24 30 27 26 26 26 26 26 26 26 24 24 23 22 23 22
31 27 25 21 20 18 17 16 16 16 18 19 18 18 17 16 16 18 21 13 15 19 18 18 12 17 23 25 27 23 25 25 27 26 25 25 24 22 21 23 24 24 23
35 29 25 22 20 19 18 17 17 16 19 19 18 18 18 17 16 17 14 15 18 16 16 16 16 18 23 27 24 23 25 25 25 26 26 24 22 22 21 23 22 22 21
34 32 28 24 21 19 19 19 18 18 21 19 18 19 20 17 16 14 19 16 16 19 20 18 18 18 23 25 23 24 23 24 24 26 25 24 23 23 21 22 21 20 19
33 30 29 27 25 24 23 20 19 18 22 20 18 20 20 18 14 17 22 17 11 23 19 17 18 19 22 25 22 20 22 23 24 26 26 25 22 20 20 21 20 18 19
31 30 28 28 27 25 24 23 21 20 21 21 20 20 21 21 18 19 21 20 17 23 18 16 19 20 21 23 20 17 22 23 24 26 26 24 21 20 19 19 19 19 19
30 29 28 28 29 28 26 26 24 23 23 24 24 23 23 24 19 20 20 22 23 19 17 18 18 19 21 25 22 19 21 22 24 27 26 24 22 19 19 19 19 19 18
37 32 30 29 29 30 30 28 27 26 26 25 26 27 25 26 19 19 23 21 23 20 20 18 19 20 22 25 25 23 22 24 25 24 25 24 22 19 18 18 18 18 18
35 36 32 30 31 31 30 31 31 30 29 29 29 29 28 28 23 21 25 24 25 24 22 20 22 22 23 26 25 25 24 24 25 26 25 22 21 20 18 17 17 17 18
34 37 36 34 34 34 32 32 32 32 32 30 30 31 31 30 26 27 25 25 29 28 26 25 25 24 24 25 25 27 27 24 25 28 27 22 21 20 19 19 18 18 18
37 38 38 38 37 36 36 35 34 33 32 30 30 32 33 32 30 29 27 27 31 30 28 26 25 24 24 24 24 25 23 24 25 28 26 23 21 20 20 21 19 19 20
34 40 38 39 39 39 37 36 35 33 32 32 32 31 32 32 31 32 29 29 32 32 29 26 22 23 22 22 23 22 21 20 25 27 26 24 21 19 21 20 20 21 20
34 35 42 40 41 40 41 38 37 34 33 33 32 32 32 32 33 33 30 31 32 32 31 29 23 25 24 23 22 20 22 27 26 27 28 25 24 22 22 22 22 22 21
33 40 42 41 44 44 42 41 38 35 34 34 34 34 35 34 34 33 32 33 33 33 32 30 26 27 27 25 21 18 16 26 27 30 29 26 26 25 26 25 22 22 22
37 37 45 46 47 46 38 34 35 34 33 35 34 37 36 36 35 33 32 34 34 34 32 30 29 29 29 29 25 17 18 20 29 33 31 29 28 28 26 26 23 23 22
41 37 44 41 40 37 32 32 32 37 36 36 36 34 34 36 33 33 32 33 34 36 36 33 31 32 28 28 22 13 10 17 21 33 33 32 30 29 27 27 25 26 24
32 36 39 42 45 43 41 39 30 33 37 37 37 34 32 33 33 34 34 35 37 36 34 34 34 26 21 33 17 17 3 5 16 21 32 32 31 30 30 29 27 27 25
30 32 36 40 42 44 39 32 25 26 23 25 33 37 35 32 31 35 34 35 36 36 33 35 37 32 23 30 24 13 4 4 12 19 26 33 32 32 32 32 30 29 27
30 36 34 39 39 40 40 36 37 35 24 28 29 34 38 31 31 31 32 33 34 35 33 35 39 38 28 25 27 27 18 7 8 4 18 27 32 34 32 33 32 31 29
21 26 33 38 38 38 42 40 38 28 27 25 28 32 34 32 31 30 29 32 32 35 34 35 34 34 36 28 31 29 22 13 27 8 7 12 23 33 33 32 31 31 30
12 12 27 34 35 37 41 38 37 32 29 27 26 29 28 33 32 31 30 31 32 34 35 36 35 36 36 29 30 28 29 18 17 11 6 17 21 23 32 34 33 31 29
Wind_Direction
169 155 155 153 150 141 136 134 134 136 133 124 120 123 122 123 128 134 138 138 139 144 145 144 138 134 141 139 127 121 125 128 127 128 126 125 119 120 125 125 123 123 123
151 151 152 152 147 139 136 138 143 146 142 132 125 124 123 122 127 130 133 130 131 139 146 145 141 141 141 140 134 129 131 134 132 130 122 123 121 123 130 130 128 125 123
146 149 150 149 140 135 137 141 147 152 150 143 133 127 127 125 124 130 131 131 132 131 138 143 144 148 146 143 138 135 136 135 135 131 129 128 127 126 131 130 128 127 124
144 152 150 143 136 136 140 144 152 157 155 149 140 138 140 142 145 148 148 152 149 139 138 147 147 150 151 143 138 141 142 143 139 136 133 127 128 126 129 131 130 127 124
151 155 148 138 135 135 142 147 154 159 159 153 148 153 154 155 158 159 158 159 151 146 137 137 152 155 148 143 140 138 138 140 141 138 132 128 128 129 133 132 130 128 126
155 159 143 142 140 140 145 152 158 162 162 157 158 161 160 159 165 167 175 163 151 150 142 137 160 153 147 142 138 134 138 142 141 137 134 134 133 136 136 135 133 130 129
160 157 152 152 149 147 152 159 161 166 162 158 166 163 159 166 176 178 187 183 168 163 144 137 160 155 150 148 144 144 144 145 143 141 139 139 137 138 138 138 139 139 137
157 160 160 159 158 156 157 161 164 164 160 162 170 165 162 170 176 179 187 177 179 163 160 152 159 160 160 155 152 150 152 152 147 146 146 144 141 137 138 143 145 144 139
161 163 165 164 165 163 164 164 165 164 164 173 171 166 167 174 183 183 175 164 167 188 160 164 161 167 164 164 164 158 162 159 152 149 148 145 147 144 141 145 148 146 142
165 169 169 169 169 166 167 169 168 166 168 174 174 169 170 174 178 171 177 169 165 163 165 164 167 173 172 174 172 167 171 164 157 154 151 148 152 146 145 143 147 147 144
167 173 176 174 173 172 172 171 171 170 172 171 176 177 172 174 170 170 178 183 160 162 173 171 173 178 178 180 179 168 172 163 162 159 155 154 152 152 151 152 150 152 149
173 178 182 183 180 176 176 176 176 175 175 176 178 180 179 175 167 175 177 182 178 176 180 176 180 184 183 182 185 174 178 169 167 163 157 156 154 158 157 158 153 155 153
183 181 188 191 188 183 181 181 180 182 180 181 182 183 185 183 178 181 181 185 182 190 186 185 185 187 187 186 185 175 183 170 169 167 160 159 162 164 162 164 160 163 160
187 193 194 196 193 191 187 186 187 186 186 185 186 186 188 189 190 187 183 188 191 190 191 190 189 191 189 193 187 180 180 179 175 172 169 169 170 172 171 174 174 171 170
189 199 199 196 197 196 191 192 193 193 193 191 190 190 191 195 196 190 190 197 194 189 195 194 191 193 194 199 192 188 186 186 186 177 172 178 179 179 177 180 178 178 174
199 202 206 203 201 197 196 196 195 197 198 197 194 194 194 197 200 199 194 200 195 192 196 198 195 193 198 199 200 198 195 191 193 181 178 181 184 185 183 181 180 176 173
204 208 207 207 203 201 201 199 198 198 198 201 202 198 197 199 199 200 199 204 201 196 194 197 199 199 197 198 205 204 198 202 194 187 185 183 187 190 186 188 185 180 177
211 205 213 206 207 206 203 202 200 198 196 198 204 202 201 199 200 201 205 206 203 202 197 196 201 198 200 198 203 200 203 211 203 190 189 189 189 187 186 189 185 184 184
213 211 210 203 206 207 207 202 201 199 197 201 204 207 205 203 202 203 207 207 205 203 203 202 200 201 198 195 199 208 209 208 206 194 192 193 192 189 187 188 189 191 191
241 214 209 204 206 204 198 194 196 198 198 203 203 209 206 204 205 206 207 207 204 204 208 207 204 199 197 198 192 196 198 201 196 194 195 194 194 192 191 190 193 194 194
234 219 203 199 199 188 182 180 188 192 195 197 201 200 201 203 205 207 207 205 206 205 205 208 203 197 193 194 168 170 193 196 196 197 195 193 194 195 195 195 196 198 198
222 219 201 195 194 190 191 192 188 185 193 197 198 199 201 202 208 206 207 202 204 204 209 208 199 184 187 189 176 163 162 176 218 208 196 195 194 197 198 200 201 202 204
240 222 204 195 190 189 190 178 179 179 182 190 201 202 208 214 214 212 213 212 210 210 205 208 201 190 188 192 187 174 159 182 160 209 203 198 197 199 204 205 205 206 208
240 224 209 191 185 185 179 176 177 179 181 200 194 193 203 208 212 215 214 214 216 211 205 207 208 200 194 194 198 204 201 167 167 156 204 200 206 203 205 209 209 211 213
238 196 193 186 181 179 180 182 180 182 186 186 185 189 199 198 206 212 217 216 217 212 208 212 205 200 201 199 199 202 214 207 194 167 179 189 207 211 208 209 210 214 217
237 216 176 177 179 178 180 182 183 181 176 170 177 183 187 192 204 212 214 218 219 220 209 209 214 206 204 205 205 205 208 198 204 186 162 184 191 200 208 212 212 213 218